THORAD AGENA D DEB, 42496

Orbit data source: Space-Track

THORAD AGENA D DEB, 42496 is space debris in SSO originally from a launch on Wed, 08 Apr 1970 UTC launched from the Air Force Western Test Range (AFWTR). Debris objects in space refer to the collection of defunct objects orbiting the Earth. Examples of debris include non-operational satellites, rocket bodies, and fragments generated from explosions, collisions, or faulty payload assembly.

Loading next visibility...
Identifier
42496, 1970-025RA
Orbit
SSO
Country
Flag of USUS
Related business
Manufacturer
Unknown
Mission
Spacecraft
Bus & Motor
Unknown
Mass
Unknown
Launch date (UTC)
1970-04-08 (56 years ago)
Launch vehicle
Unknown
Launch site
Air Force Western Test Range (AFWTR)
Object type
Payload
Rocket body
Debris
Shape & HBR
Unknown shape, 0.1 m
Radar Cross Section
Small (<0.1 m²)

Expand to show TLE details & history
Last TLE update: 6 days ago

TLE from 6 days ago
0 THORAD AGENA D DEB
1 42496U 70025RA  26126.61216314  .00000232  00000-0  43849-3 0  9998
2 42496  99.6239   3.0999 0052647 215.1374 174.3965 13.48456116612555
Epoch: 2026-05-06T14:41Z
TLE epoch observation values (Epoch: 2026-05-06T14:41:30.895Z)
Latitude
29.18219°
Longitude
-87.15513°
Altitude
1,120.535 km
Speed
7.276 km/s
True Right ascension
23h 50m 46s
True Declination
29° 02' 35"
Sunlit
Object was in daylight at epoch
Visualization orbit readout
Latitude
Unknown
Longitude
Unknown
Altitude
Unknown
Speed
Unknown
Apparent Right ascension
Unknown
Apparent Declination
Unknown
Sunlit
N/A
Visualization observer readout
Local Sidereal Time
10:11:43
Azimuth
Unknown
Elevation
Unknown
Doppler factor
Unknown
Orbital elements
Apogee altitude
1,114.483 km
Perigee altitude
1,036.004 km
Semi-major axis
7,453.381 km
Eccentricity
0.00526
Inclination
99.6239°
RAAN
3.0999°
Arg. of periapsis
215.1374°
True anomaly
174.45502°
Mean anomaly
174.3965°
Eccentric anomaly
174.4258°
Mean motion
3.37298 °/min
Orbital period
106.73 mins
BSTAR
0.00043849
Loading maneuver chart data...
Computing Atmospheric mass density...

Documentation

Showing up to 5 results
|